| time (UTC) | temp F | wind direction | speed MPH | gust MPH | rain 1hr in | rain 24hr in | rain mn in | humidity % | barometer mb |
| 20260906193030 | 68 | 9 | 1.0 | 8.0 | 0.00 | 0.00 | 0.00 | 61 | 1016.4 |
| 20260906192513 | 68 | 39 | 4.0 | 11.0 | 0.00 | 0.00 | 0.00 | 59 | 1016.4 |
| 20260906192014 | 68 | 33 | 3.0 | 11.0 | 0.00 | 0.00 | 0.00 | 61 | 1016.5 |
| 20260906191541 | 68 | 221 | 2.0 | 10.0 | 0.00 | 0.00 | 0.00 | 59 | 1016.4 |
| 20260906191014 | 68 | 178 | 1.0 | 7.0 | 0.00 | 0.00 | 0.00 | 59 | 1016.5 |
| 20260906190513 | 67 | 229 | 1.0 | 7.0 | 0.00 | 0.00 | 0.00 | 60 | 1016.7 |
| 20260906190040 | 67 | 50 | 3.0 | 9.0 | 0.00 | 0.00 | 0.00 | 62 | 1016.7 |
| 20260906185518 | 67 | 46 | 4.0 | 9.0 | 0.00 | 0.00 | 0.00 | 60 | 1016.7 |
| 20260906185019 | 67 | 9 | 3.0 | 6.0 | 0.00 | 0.00 | 0.00 | 62 | 1016.8 |
| 20260906184531 | 67 | 68 | 2.0 | 6.0 | 0.00 | 0.00 | 0.00 | 61 | 1016.9 |
| 20260906184013 | 66 | 9 | 1.0 | 6.0 | 0.00 | 0.00 | 0.00 | 64 | 1017.0 |
| 20260906183515 | 66 | 137 | 1.0 | 6.0 | 0.00 | 0.00 | 0.00 | 62 | 1017.1 |
| 20260906183035 | 66 | 9 | 2.0 | 5.0 | 0.00 | 0.00 | 0.00 | 63 | 1017.2 |
| 20260906182513 | 65 | 68 | 1.0 | 6.0 | 0.00 | 0.00 | 0.00 | 64 | 1017.3 |
| 20260906182017 | 65 | 51 | 2.0 | 6.0 | 0.00 | 0.00 | 0.00 | 64 | 1017.3 |
| 20260906181537 | 65 | 44 | 1.0 | 5.0 | 0.00 | 0.00 | 0.00 | 68 | 1017.3 |
| 20260906181014 | 65 | 137 | 1.0 | 5.0 | 0.00 | 0.00 | 0.00 | 65 | 1017.3 |
| 20260906180519 | 65 | 205 | 0.0 | 5.0 | 0.00 | 0.00 | 0.00 | 67 | 1017.3 |
| 20260906180032 | 64 | 78 | 1.0 | 6.0 | 0.00 | 0.00 | 0.00 | 67 | 1017.4 |
| 20260906175518 | 64 | 229 | 0.0 | 6.0 | 0.00 | 0.00 | 0.00 | 70 | 1017.4 |
| 20260906175020 | 63 | 31 | 1.0 | 7.0 | 0.00 | 0.00 | 0.00 | 71 | 1017.4 |
| 20260906174526 | 63 | 93 | 2.0 | 7.0 | 0.00 | 0.00 | 0.00 | 70 | 1017.4 |
| 20260906174015 | 62 | 137 | 1.0 | 5.0 | 0.00 | 0.00 | 0.00 | 74 | 1017.4 |
| 20260906173513 | 61 | 265 | 2.0 | 5.0 | 0.00 | 0.00 | 0.00 | 74 | 1017.4 |
| 20260906173033 | 60 | 51 | 1.0 | 5.0 | 0.00 | 0.00 | 0.00 | 76 | 1017.4 |
| 20260906172513 | 60 | 34 | 3.0 | 5.0 | 0.00 | 0.00 | 0.00 | 75 | 1017.4 |
| 20260906172020 | 60 | 68 | 2.0 | 7.0 | 0.00 | 0.00 | 0.00 | 77 | 1017.5 |
| 20260906171530 | 59 | 41 | 3.0 | 7.0 | 0.00 | 0.00 | 0.00 | 76 | 1017.4 |
| 20260906171019 | 59 | 43 | 1.0 | 7.0 | 0.00 | 0.00 | 0.00 | 81 | 1017.4 |
| 20260906170513 | 59 | 53 | 1.0 | 7.0 | 0.00 | 0.00 | 0.00 | 79 | 1017.4 |
| 20260906170029 | 58 | 36 | 3.0 | 7.0 | 0.00 | 0.00 | 0.00 | 79 | 1017.3 |
| 20260906165514 | 58 | 48 | 3.0 | 7.0 | 0.00 | 0.00 | 0.00 | 81 | 1017.4 |
| 20260906165013 | 58 | 360 | 1.0 | 6.0 | 0.00 | 0.00 | 0.00 | 83 | 1017.5 |
| 20260906164530 | 57 | 38 | 1.0 | 3.0 | 0.00 | 0.00 | 0.00 | 83 | 1017.4 |
| 20260906164016 | 56 | 34 | 0.0 | 4.0 | 0.00 | 0.00 | 0.00 | 86 | 1017.4 |
| 20260906163514 | 55 | 66 | 2.0 | 4.0 | 0.00 | 0.00 | 0.00 | 88 | 1017.4 |
| 20260906163032 | 55 | 30 | 1.0 | 3.0 | 0.00 | 0.00 | 0.00 | 92 | 1017.3 |
| 20260906162519 | 54 | 64 | 1.0 | 2.0 | 0.00 | 0.00 | 0.00 | 94 | 1017.3 |
| 20260906162014 | 53 | 212 | 0.0 | 2.0 | 0.00 | 0.00 | 0.00 | 95 | 1017.3 |
| 20260906161531 | 52 | 68 | 0.0 | 2.0 | 0.00 | 0.00 | 0.00 | 96 | 1017.3 |
| 20260906161020 | 52 | 221 | 0.0 | 3.0 | 0.00 | 0.00 | 0.00 | 96 | 1017.4 |
| 20260906160514 | 51 | 153 | 1.0 | 3.0 | 0.00 | 0.00 | 0.00 | 96 | 1017.4 |
| 20260906160037 | 50 | 110 | 0.0 | 2.0 | 0.00 | 0.00 | 0.00 | 96 | 1017.5 |
| 20260906155516 | 49 | 137 | 0.0 | 1.0 | 0.00 | 0.00 | 0.00 | 96 | 1017.6 |
| 20260906155022 | 49 | 51 | 0.0 | 2.0 | 0.00 | 0.00 | 0.00 | 96 | 1017.6 |
| 20260906154541 | 48 | 9 | 0.0 | 2.0 | 0.00 | 0.00 | 0.00 | 96 | 1017.5 |
| 20260906154015 | 48 | 34 | 0.0 | 1.0 | 0.00 | 0.00 | 0.00 | 96 | 1017.6 |
| 20260906153518 | 47 | 68 | 0.0 | 1.0 | 0.00 | 0.00 | 0.00 | 95 | 1017.6 |
| 20260906153036 | 47 | 9 | 0.0 | 1.0 | 0.00 | 0.00 | 0.00 | 96 | 1017.6 |
| 20260906152521 | 46 | 26 | 0.0 | 2.0 | 0.00 | 0.00 | 0.00 | 95 | 1017.5 |
| 20260906152016 | 46 | 34 | 0.0 | 2.0 | 0.00 | 0.00 | 0.00 | 95 | 1017.5 |
| 20260906151530 | 46 | 34 | 0.0 | 1.0 | 0.00 | 0.00 | 0.00 | 95 | 1017.5 |
| 20260906151018 | 46 | 26 | 0.0 | 1.0 | 0.00 | 0.00 | 0.00 | 95 | 1017.4 |
| 20260906150516 | 45 | 9 | 0.0 | 1.0 | 0.00 | 0.00 | 0.00 | 95 | 1017.4 |
| 20260906150031 | 45 | 34 | 0.0 | 1.0 | 0.00 | 0.00 | 0.00 | 95 | 1017.4 |
| 20260906145520 | 45 | 26 | 0.0 | 1.0 | 0.00 | 0.00 | 0.00 | 95 | 1017.4 |
| 20260906145015 | 45 | 9 | 0.0 | 1.0 | 0.00 | 0.00 | 0.00 | 95 | 1017.4 |
| 20260906144535 | 45 | 26 | 0.0 | 1.0 | 0.00 | 0.00 | 0.00 | 95 | 1017.4 |
| 20260906144018 | 45 | 137 | 0.0 | 1.0 | 0.00 | 0.00 | 0.00 | 94 | 1017.4 |
| 20260906143517 | 45 | 51 | 0.0 | 1.0 | 0.00 | 0.00 | 0.00 | 94 | 1017.5 |
| 20260906143034 | 44 | 309 | 0.0 | 1.0 | 0.00 | 0.00 | 0.00 | 94 | 1017.5 |
| 20260906142517 | 44 | 9 | 0.0 | 2.0 | 0.00 | 0.00 | 0.00 | 94 | 1017.5 |
| 20260906142016 | 44 | 9 | 0.0 | 2.0 | 0.00 | 0.00 | 0.00 | 94 | 1017.5 |
| 20260906141532 | 44 | 51 | 0.0 | 1.0 | 0.00 | 0.00 | 0.00 | 94 | 1017.5 |
| 20260906141015 | 44 | 9 | 0.0 | 1.0 | 0.00 | 0.00 | 0.00 | 94 | 1017.4 |
| 20260906140514 | 44 | 9 | 0.0 | 1.0 | 0.00 | 0.00 | 0.00 | 94 | 1017.4 |
| 20260906140040 | 44 | 26 | 0.0 | 1.0 | 0.00 | 0.00 | 0.00 | 94 | 1017.4 |
| 20260906135517 | 44 | 9 | 0.0 | 1.0 | 0.00 | 0.00 | 0.00 | 94 | 1017.4 |
| 20260906135013 | 45 | 34 | 0.0 | 1.0 | 0.00 | 0.00 | 0.00 | 94 | 1017.4 |
| 20260906134529 | 45 | 9 | 0.0 | 1.0 | 0.00 | 0.00 | 0.00 | 93 | 1017.5 |
| 20260906134014 | 45 | 9 | 0.0 | 1.0 | 0.00 | 0.00 | 0.00 | 93 | 1017.5 |
| 20260906133515 | 45 | 9 | 0.0 | 0.0 | 0.00 | 0.00 | 0.00 | 93 | 1017.5 |
| 20260906133030 | 45 | 9 | 0.0 | 0.0 | 0.00 | 0.00 | 0.00 | 93 | 1017.4 |
| 20260906132514 | 45 | 309 | 0.0 | 1.0 | 0.00 | 0.00 | 0.00 | 94 | 1017.4 |
| 20260906132005 | 45 | 9 | 0.0 | 1.0 | 0.00 | 0.00 | 0.00 | 93 | 1017.3 |
| 20260906131508 | 45 | 51 | 0.0 | 1.0 | 0.00 | 0.00 | 0.00 | 93 | 1017.3 |
| 20260906131003 | 45 | 9 | 0.0 | 1.0 | 0.00 | 0.00 | 0.00 | 93 | 1017.3 |
| 20260906130504 | 45 | 34 | 0.0 | 1.0 | 0.00 | 0.00 | 0.00 | 93 | 1017.3 |
| 20260906130015 | 45 | 67 | 0.0 | 1.0 | 0.00 | 0.00 | 0.00 | 93 | 1017.3 |
| 20260906125505 | 45 | 51 | 0.0 | 1.0 | 0.00 | 0.00 | 0.00 | 93 | 1017.3 |
| 20260906125002 | 45 | 51 | 0.0 | 1.0 | 0.00 | 0.00 | 0.00 | 93 | 1017.3 |
| 20260906124503 | 45 | 51 | 0.0 | 1.0 | 0.00 | 0.00 | 0.00 | 93 | 1017.2 |
| 20260906124004 | 46 | 51 | 0.0 | 1.0 | 0.00 | 0.00 | 0.00 | 93 | 1017.2 |
| 20260906123504 | 46 | 68 | 0.0 | 1.0 | 0.00 | 0.00 | 0.00 | 93 | 1017.3 |
| 20260906123012 | 46 | 9 | 0.0 | 1.0 | 0.00 | 0.00 | 0.00 | 93 | 1017.3 |
| 20260906122504 | 46 | 51 | 0.0 | 1.0 | 0.00 | 0.00 | 0.00 | 93 | 1017.3 |
| 20260906122004 | 46 | 51 | 0.0 | 1.0 | 0.00 | 0.00 | 0.00 | 93 | 1017.4 |
| 20260906121505 | 46 | 34 | 0.0 | 1.0 | 0.00 | 0.00 | 0.00 | 93 | 1017.4 |
| 20260906121004 | 46 | 51 | 0.0 | 1.0 | 0.00 | 0.00 | 0.00 | 93 | 1017.4 |
| 20260906120507 | 46 | 51 | 0.0 | 1.0 | 0.00 | 0.00 | 0.00 | 93 | 1017.3 |
| 20260906120007 | 46 | 93 | 0.0 | 1.0 | 0.00 | 0.00 | 0.00 | 93 | 1017.4 |
| 20260906115504 | 46 | 51 | 0.0 | 1.0 | 0.00 | 0.00 | 0.00 | 93 | 1017.5 |
| 20260906115002 | 46 | 51 | 0.0 | 1.0 | 0.00 | 0.00 | 0.00 | 93 | 1017.5 |
| 20260906114508 | 46 | 51 | 0.0 | 1.0 | 0.00 | 0.00 | 0.00 | 93 | 1017.5 |
| 20260906114008 | 47 | 68 | 0.0 | 1.0 | 0.00 | 0.00 | 0.00 | 93 | 1017.5 |
| 20260906113503 | 47 | 68 | 0.0 | 1.0 | 0.00 | 0.00 | 0.00 | 93 | 1017.4 |
| 20260906113006 | 47 | 51 | 0.0 | 1.0 | 0.00 | 0.00 | 0.00 | 93 | 1017.4 |
| 20260906112506 | 47 | 93 | 0.0 | 2.0 | 0.00 | 0.00 | 0.00 | 93 | 1017.4 |
| 20260906112007 | 47 | 51 | 0.0 | 2.0 | 0.00 | 0.00 | 0.00 | 93 | 1017.4 |
| 20260906111513 | 47 | 34 | 0.0 | 1.0 | 0.00 | 0.00 | 0.00 | 93 | 1017.5 |
| 20260906111015 | 47 | 51 | 0.0 | 1.0 | 0.00 | 0.00 | 0.00 | 93 | 1017.5 |
| 20260906110514 | 47 | 68 | 0.0 | 1.0 | 0.00 | 0.00 | 0.00 | 93 | 1017.6 |
| 20260906110032 | 47 | 9 | 0.0 | 1.0 | 0.00 | 0.00 | 0.00 | 93 | 1017.7 |
| 20260906105516 | 47 | 51 | 0.0 | 1.0 | 0.00 | 0.00 | 0.00 | 93 | 1017.7 |
| 20260906105014 | 47 | 68 | 0.0 | 1.0 | 0.00 | 0.00 | 0.00 | 93 | 1017.7 |
| 20260906104532 | 47 | 51 | 0.0 | 1.0 | 0.00 | 0.00 | 0.00 | 93 | 1017.7 |
| 20260906104015 | 47 | 68 | 0.0 | 1.0 | 0.00 | 0.00 | 0.00 | 93 | 1017.6 |
| 20260906103518 | 47 | 68 | 0.0 | 1.0 | 0.00 | 0.00 | 0.00 | 93 | 1017.6 |
| 20260906103030 | 48 | 61 | 0.0 | 1.0 | 0.00 | 0.00 | 0.00 | 93 | 1017.5 |
| 20260906102514 | 48 | 51 | 0.0 | 1.0 | 0.00 | 0.00 | 0.00 | 93 | 1017.4 |
| 20260906102014 | 48 | 51 | 0.0 | 1.0 | 0.00 | 0.00 | 0.00 | 93 | 1017.4 |
| 20260906101529 | 48 | 153 | 0.0 | 1.0 | 0.00 | 0.00 | 0.00 | 93 | 1017.4 |
| 20260906101014 | 48 | 93 | 0.0 | 1.0 | 0.00 | 0.00 | 0.00 | 92 | 1017.5 |
| 20260906100514 | 48 | 93 | 0.0 | 1.0 | 0.00 | 0.00 | 0.00 | 92 | 1017.4 |
| 20260906100030 | 48 | 51 | 0.0 | 1.0 | 0.00 | 0.00 | 0.00 | 92 | 1017.3 |
| 20260906095515 | 48 | 51 | 0.0 | 1.0 | 0.00 | 0.00 | 0.00 | 93 | 1017.3 |
| 20260906095019 | 48 | 34 | 0.0 | 1.0 | 0.00 | 0.00 | 0.00 | 93 | 1017.3 |
| 20260906094535 | 48 | 34 | 0.0 | 2.0 | 0.00 | 0.00 | 0.00 | 93 | 1017.3 |
| 20260906094012 | 48 | 51 | 0.0 | 2.0 | 0.00 | 0.00 | 0.00 | 92 | 1017.4 |
| 20260906093512 | 49 | 9 | 0.0 | 1.0 | 0.00 | 0.00 | 0.00 | 92 | 1017.4 |
| 20260906093032 | 49 | 51 | 0.0 | 1.0 | 0.00 | 0.01 | 0.00 | 92 | 1017.5 |
| 20260906092517 | 49 | 68 | 0.0 | 1.0 | 0.00 | 0.01 | 0.00 | 92 | 1017.4 |
| 20260906092015 | 49 | 51 | 0.0 | 1.0 | 0.00 | 0.01 | 0.00 | 92 | 1017.5 |
| 20260906091534 | 49 | 9 | 0.0 | 1.0 | 0.00 | 0.01 | 0.00 | 92 | 1017.5 |
| 20260906091016 | 49 | 51 | 0.0 | 1.0 | 0.00 | 0.01 | 0.00 | 92 | 1017.5 |
| 20260906090516 | 49 | 51 | 0.0 | 1.0 | 0.00 | 0.01 | 0.00 | 92 | 1017.5 |
| 20260906090031 | 49 | 68 | 0.0 | 1.0 | 0.00 | 0.01 | 0.00 | 92 | 1017.4 |
| 20260906085514 | 49 | 9 | 0.0 | 1.0 | 0.00 | 0.01 | 0.00 | 92 | 1017.4 |
| 20260906085021 | 49 | 51 | 0.0 | 1.0 | 0.00 | 0.01 | 0.00 | 92 | 1017.4 |
| 20260906084532 | 50 | 93 | 0.0 | 2.0 | 0.00 | 0.01 | 0.00 | 92 | 1017.5 |
| 20260906084015 | 50 | 51 | 0.0 | 2.0 | 0.00 | 0.01 | 0.00 | 92 | 1017.5 |
| 20260906083518 | 50 | 265 | 0.0 | 1.0 | 0.00 | 0.01 | 0.00 | 91 | 1017.5 |
| 20260906083032 | 50 | 41 | 0.0 | 1.0 | 0.00 | 0.01 | 0.00 | 92 | 1017.5 |
| 20260906082514 | 50 | 51 | 0.0 | 1.0 | 0.00 | 0.01 | 0.00 | 91 | 1017.6 |
| 20260906082016 | 50 | 9 | 0.0 | 1.0 | 0.00 | 0.01 | 0.00 | 91 | 1017.6 |
| 20260906081535 | 50 | 93 | 0.0 | 1.0 | 0.00 | 0.01 | 0.00 | 91 | 1017.6 |
| 20260906081015 | 50 | 265 | 0.0 | 1.0 | 0.00 | 0.01 | 0.00 | 91 | 1017.6 |
| 20260906080515 | 50 | 68 | 0.0 | 1.0 | 0.00 | 0.01 | 0.00 | 91 | 1017.6 |
| 20260906080033 | 51 | 9 | 0.0 | 1.0 | 0.00 | 0.01 | 0.00 | 91 | 1017.6 |
| 20260906075513 | 51 | 51 | 0.0 | 1.0 | 0.00 | 0.01 | 0.00 | 91 | 1017.6 |
| 20260906075016 | 51 | 34 | 0.0 | 1.0 | 0.00 | 0.01 | 0.00 | 91 | 1017.7 |
| 20260906074536 | 51 | 9 | 0.0 | 1.0 | 0.00 | 0.01 | 0.00 | 91 | 1017.7 |
| 20260906074014 | 51 | 9 | 0.0 | 1.0 | 0.00 | 0.01 | 0.00 | 91 | 1017.7 |
| 20260906073513 | 51 | 34 | 0.0 | 1.0 | 0.00 | 0.01 | 0.00 | 91 | 1017.6 |
| 20260906073034 | 51 | 51 | 0.0 | 1.0 | 0.00 | 0.01 | 0.00 | 91 | 1017.7 |
| 20260906072512 | 51 | 51 | 0.0 | 1.0 | 0.00 | 0.01 | 0.00 | 91 | 1017.8 |
| 20260906072014 | 52 | 51 | 0.0 | 1.0 | 0.00 | 0.01 | 0.00 | 91 | 1017.8 |
| 20260906071530 | 52 | 68 | 0.0 | 1.0 | 0.00 | 0.01 | 0.00 | 91 | 1017.8 |
| 20260906071015 | 52 | 51 | 0.0 | 2.0 | 0.00 | 0.01 | 0.00 | 90 | 1017.8 |
| 20260906070513 | 52 | 334 | 0.0 | 2.0 | 0.00 | 0.01 | 0.00 | 90 | 1017.8 |
| 20260906070031 | 52 | 68 | 0.0 | 1.0 | 0.00 | 0.01 | 0.00 | 90 | 1017.9 |
| 20260906065513 | 52 | 9 | 0.0 | 1.0 | 0.00 | 0.01 | 0.01 | 90 | 1018.0 |
| 20260906065015 | 52 | 93 | 0.0 | 1.0 | 0.00 | 0.01 | 0.01 | 90 | 1018.0 |
| 20260906064535 | 52 | 93 | 0.0 | 1.0 | 0.00 | 0.01 | 0.01 | 89 | 1017.9 |
| 20260906064021 | 53 | 51 | 0.0 | 1.0 | 0.00 | 0.01 | 0.01 | 89 | 1018.0 |
| 20260906063514 | 53 | 51 | 0.0 | 0.0 | 0.00 | 0.01 | 0.01 | 89 | 1018.0 |
| 20260906063031 | 53 | 9 | 0.0 | 1.0 | 0.00 | 0.01 | 0.01 | 89 | 1018.0 |
| 20260906062515 | 53 | 9 | 0.0 | 1.0 | 0.00 | 0.01 | 0.01 | 89 | 1017.9 |
| 20260906062016 | 53 | 26 | 0.0 | 1.0 | 0.00 | 0.01 | 0.01 | 89 | 1017.9 |
| 20260906061530 | 53 | 325 | 0.0 | 1.0 | 0.00 | 0.01 | 0.01 | 88 | 1017.9 |
| 20260906061015 | 53 | 51 | 0.0 | 1.0 | 0.00 | 0.01 | 0.01 | 88 | 1017.8 |
| 20260906060515 | 54 | 68 | 0.0 | 1.0 | 0.00 | 0.01 | 0.01 | 89 | 1017.8 |
| 20260906060031 | 54 | 309 | 0.0 | 1.0 | 0.00 | 0.01 | 0.01 | 88 | 1017.8 |
| 20260906055514 | 54 | 51 | 0.0 | 2.0 | 0.00 | 0.01 | 0.01 | 88 | 1017.9 |
| 20260906055014 | 54 | 9 | 0.0 | 2.0 | 0.00 | 0.01 | 0.01 | 88 | 1017.8 |
| 20260906054531 | 54 | 93 | 0.0 | 1.0 | 0.00 | 0.01 | 0.01 | 87 | 1017.8 |
| 20260906054016 | 54 | 9 | 0.0 | 1.0 | 0.00 | 0.01 | 0.01 | 87 | 1017.7 |
| 20260906053514 | 55 | 26 | 0.0 | 1.0 | 0.00 | 0.01 | 0.01 | 87 | 1017.7 |
| 20260906053035 | 55 | 265 | 0.0 | 1.0 | 0.00 | 0.01 | 0.01 | 87 | 1017.7 |
| 20260906052515 | 55 | 9 | 0.0 | 1.0 | 0.00 | 0.01 | 0.01 | 87 | 1017.7 |
| 20260906052016 | 55 | 9 | 0.0 | 1.0 | 0.00 | 0.01 | 0.01 | 86 | 1017.9 |
| 20260906051534 | 55 | 51 | 0.0 | 1.0 | 0.00 | 0.01 | 0.01 | 86 | 1018.0 |
| 20260906051012 | 55 | 51 | 0.0 | 1.0 | 0.00 | 0.01 | 0.01 | 85 | 1018.0 |
| 20260906050512 | 56 | 51 | 0.0 | 1.0 | 0.00 | 0.01 | 0.01 | 86 | 1018.0 |
| 20260906050052 | 56 | 9 | 0.0 | 1.0 | 0.00 | 0.01 | 0.01 | 85 | 1018.0 |
| 20260906045517 | 56 | 265 | 0.0 | 2.0 | 0.00 | 0.01 | 0.01 | 84 | 1018.0 |
| 20260906045015 | 56 | 51 | 0.0 | 2.0 | 0.00 | 0.01 | 0.01 | 84 | 1018.1 |
| 20260906044533 | 56 | 9 | 0.0 | 2.0 | 0.00 | 0.01 | 0.01 | 83 | 1018.2 |
| 20260906044018 | 57 | 51 | 0.0 | 1.0 | 0.00 | 0.01 | 0.01 | 82 | 1018.2 |
| 20260906043515 | 57 | 51 | 0.0 | 1.0 | 0.00 | 0.01 | 0.01 | 82 | 1018.2 |
| 20260906043035 | 57 | 51 | 0.0 | 1.0 | 0.00 | 0.01 | 0.01 | 81 | 1018.2 |
| 20260906042518 | 57 | 51 | 0.0 | 1.0 | 0.00 | 0.01 | 0.01 | 81 | 1018.3 |
| 20260906042016 | 58 | 51 | 0.0 | 1.0 | 0.00 | 0.01 | 0.01 | 81 | 1018.4 |
| 20260906041529 | 58 | 9 | 0.0 | 1.0 | 0.00 | 0.01 | 0.01 | 81 | 1018.3 |
| 20260906041017 | 58 | 76 | 0.0 | 1.0 | 0.00 | 0.01 | 0.01 | 80 | 1018.4 |
| 20260906040519 | 59 | 51 | 0.0 | 0.0 | 0.00 | 0.01 | 0.01 | 79 | 1018.4 |
| 20260906040040 | 59 | 51 | 0.0 | 1.0 | 0.00 | 0.01 | 0.01 | 78 | 1018.3 |
| 20260906035516 | 59 | 93 | 0.0 | 1.0 | 0.00 | 0.01 | 0.01 | 78 | 1018.4 |
| 20260906035018 | 59 | 51 | 0.0 | 1.0 | 0.00 | 0.01 | 0.01 | 77 | 1018.4 |
| 20260906034542 | 60 | 51 | 0.0 | 1.0 | 0.00 | 0.01 | 0.01 | 78 | 1018.4 |
| 20260906034017 | 60 | 93 | 0.0 | 2.0 | 0.00 | 0.01 | 0.01 | 77 | 1018.2 |
| 20260906033514 | 61 | 51 | 0.0 | 2.0 | 0.00 | 0.01 | 0.01 | 76 | 1018.2 |
| 20260906033032 | 61 | 51 | 0.0 | 1.0 | 0.00 | 0.01 | 0.01 | 75 | 1018.0 |
| 20260906032514 | 61 | 9 | 0.0 | 1.0 | 0.00 | 0.01 | 0.01 | 74 | 1018.0 |
| 20260906032016 | 62 | 265 | 0.0 | 1.0 | 0.00 | 0.02 | 0.01 | 73 | 1018.0 |
| 20260906031504 | 62 | 93 | 0.0 | 1.0 | 0.00 | 0.02 | 0.01 | 73 | 1017.9 |
| 20260906031003 | 62 | 68 | 0.0 | 1.0 | 0.00 | 0.02 | 0.01 | 73 | 1017.9 |
| 20260906030512 | 63 | 68 | 0.0 | 1.0 | 0.00 | 0.03 | 0.01 | 73 | 1017.9 |
| 20260906030006 | 63 | 51 | 0.0 | 2.0 | 0.00 | 0.04 | 0.01 | 72 | 1018.0 |
| 20260906025504 | 63 | 51 | 0.0 | 2.0 | 0.00 | 0.04 | 0.01 | 71 | 1018.0 |
| 20260906025004 | 64 | 34 | 0.0 | 2.0 | 0.00 | 0.04 | 0.01 | 71 | 1018.0 |
| 20260906024507 | 64 | 9 | 0.0 | 1.0 | 0.00 | 0.05 | 0.01 | 70 | 1018.0 |
| 20260906024003 | 64 | 9 | 0.0 | 2.0 | 0.00 | 0.05 | 0.01 | 69 | 1017.9 |
| 20260906023504 | 65 | 51 | 0.0 | 2.0 | 0.00 | 0.05 | 0.01 | 69 | 1017.9 |
| 20260906023005 | 65 | 51 | 0.0 | 1.0 | 0.00 | 0.05 | 0.01 | 68 | 1017.9 |
| 20260906022502 | 66 | 9 | 0.0 | 1.0 | 0.00 | 0.05 | 0.01 | 68 | 1017.9 |
| 20260906022005 | 66 | 26 | 0.0 | 2.0 | 0.00 | 0.05 | 0.01 | 68 | 1017.8 |
| 20260906021504 | 66 | 9 | 0.0 | 2.0 | 0.00 | 0.05 | 0.01 | 66 | 1017.8 |
| 20260906021003 | 66 | 61 | 0.0 | 1.0 | 0.00 | 0.05 | 0.01 | 66 | 1017.8 |
| 20260906020506 | 67 | 309 | 0.0 | 1.0 | 0.00 | 0.05 | 0.01 | 65 | 1017.8 |
| 20260906020005 | 67 | 309 | 0.0 | 1.0 | 0.00 | 0.05 | 0.01 | 65 | 1017.8 |
| 20260906015504 | 67 | 51 | 0.0 | 1.0 | 0.00 | 0.05 | 0.01 | 64 | 1017.7 |
| 20260906015004 | 67 | 221 | 0.0 | 2.0 | 0.00 | 0.05 | 0.01 | 62 | 1017.7 |
| 20260906014509 | 67 | 34 | 0.0 | 2.0 | 0.00 | 0.05 | 0.01 | 62 | 1017.6 |
| 20260906014003 | 67 | 41 | 1.0 | 3.0 | 0.00 | 0.05 | 0.01 | 61 | 1017.6 |
| 20260906013503 | 67 | 338 | 0.0 | 5.0 | 0.00 | 0.05 | 0.01 | 59 | 1017.6 |
| 20260906013008 | 67 | 291 | 0.0 | 5.0 | 0.00 | 0.05 | 0.01 | 59 | 1017.6 |
| 20260906012503 | 68 | 51 | 0.0 | 2.0 | 0.00 | 0.05 | 0.01 | 60 | 1017.6 |
| 20260906012005 | 68 | 9 | 0.0 | 2.0 | 0.00 | 0.05 | 0.01 | 63 | 1017.6 |
| 20260906011506 | 68 | 51 | 0.0 | 2.0 | 0.00 | 0.05 | 0.01 | 66 | 1017.6 |
| 20260906011003 | 68 | 93 | 0.0 | 2.0 | 0.00 | 0.05 | 0.01 | 61 | 1017.6 |
| 20260906010507 | 69 | 239 | 0.0 | 2.0 | 0.00 | 0.05 | 0.01 | 57 | 1017.6 |
| 20260906010007 | 69 | 30 | 0.0 | 2.0 | 0.00 | 0.05 | 0.01 | 60 | 1017.6 |
| 20260906005503 | 69 | 51 | 0.0 | 2.0 | 0.00 | 0.05 | 0.01 | 60 | 1017.5 |
| 20260906005003 | 69 | 51 | 0.0 | 2.0 | 0.00 | 0.05 | 0.01 | 54 | 1017.5 |
| 20260906004507 | 69 | 93 | 0.0 | 3.0 | 0.00 | 0.05 | 0.01 | 56 | 1017.5 |
| 20260906004004 | 69 | 9 | 1.0 | 3.0 | 0.00 | 0.05 | 0.01 | 55 | 1017.5 |
| 20260906003505 | 69 | 51 | 0.0 | 2.0 | 0.00 | 0.05 | 0.01 | 54 | 1017.5 |
| 20260906003005 | 69 | 338 | 1.0 | 2.0 | 0.00 | 0.06 | 0.01 | 53 | 1017.5 |
| 20260906002502 | 70 | 38 | 0.0 | 3.0 | 0.00 | 0.07 | 0.01 | 55 | 1017.5 |
| 20260906002003 | 70 | 129 | 1.0 | 3.0 | 0.00 | 0.14 | 0.01 | 53 | 1017.4 |
| 20260906001504 | 70 | 178 | 0.0 | 3.0 | 0.00 | 0.15 | 0.01 | 54 | 1017.4 |
| 20260906001004 | 70 | 334 | 1.0 | 3.0 | 0.00 | 0.15 | 0.01 | 53 | 1017.4 |
| 20260906000503 | 70 | 309 | 0.0 | 2.0 | 0.00 | 0.15 | 0.01 | 53 | 1017.4 |
| 20260906000009 | 70 | 51 | 0.0 | 3.0 | 0.00 | 0.15 | 0.01 | 55 | 1017.4 |
| 20260905235505 | 70 | 51 | 0.0 | 3.0 | 0.00 | 0.15 | 0.01 | 55 | 1017.4 |
| 20260905235003 | 70 | 59 | 0.0 | 5.0 | 0.00 | 0.15 | 0.01 | 55 | 1017.4 |
| 20260905234509 | 70 | 93 | 2.0 | 5.0 | 0.00 | 0.15 | 0.01 | 53 | 1017.5 |
| 20260905234007 | 70 | 71 | 1.0 | 4.0 | 0.00 | 0.15 | 0.01 | 54 | 1017.5 |
| 20260905233508 | 70 | 59 | 1.0 | 4.0 | 0.00 | 0.15 | 0.01 | 55 | 1017.6 |
| 20260905233024 | 70 | 51 | 0.0 | 4.0 | 0.00 | 0.15 | 0.01 | 53 | 1017.6 |
| 20260905232510 | 70 | 51 | 1.0 | 3.0 | 0.00 | 0.15 | 0.01 | 52 | 1017.7 |
| 20260905232004 | 70 | 232 | 1.0 | 2.0 | 0.00 | 0.15 | 0.01 | 53 | 1017.7 |
| 20260905231510 | 69 | 93 | 0.0 | 4.0 | 0.00 | 0.15 | 0.01 | 54 | 1017.7 |
| 20260905231006 | 69 | 68 | 0.0 | 6.0 | 0.00 | 0.15 | 0.01 | 55 | 1017.8 |
| 20260905230503 | 69 | 171 | 2.0 | 7.0 | 0.00 | 0.15 | 0.01 | 55 | 1017.9 |
| 20260905230011 | 69 | 150 | 1.0 | 7.0 | 0.00 | 0.15 | 0.01 | 58 | 1018.0 |
| 20260905225505 | 69 | 162 | 1.0 | 6.0 | 0.00 | 0.15 | 0.01 | 55 | 1017.9 |
| 20260905225006 | 70 | 192 | 1.0 | 5.0 | 0.00 | 0.15 | 0.01 | 53 | 1018.0 |
| 20260905224510 | 71 | 9 | 1.0 | 3.0 | 0.00 | 0.15 | 0.01 | 51 | 1018.0 |
| 20260905224005 | 70 | 165 | 1.0 | 4.0 | 0.00 | 0.15 | 0.01 | 54 | 1018.0 |
| 20260905223507 | 70 | 93 | 0.0 | 5.0 | 0.00 | 0.15 | 0.01 | 54 | 1018.1 |
| 20260905223010 | 69 | 325 | 2.0 | 7.0 | 0.00 | 0.15 | 0.01 | 52 | 1018.1 |
| 20260905222506 | 70 | 170 | 3.0 | 7.0 | 0.00 | 0.15 | 0.01 | 54 | 1018.0 |
| 20260905222009 | 71 | 148 | 3.0 | 7.0 | 0.00 | 0.15 | 0.01 | 53 | 1018.1 |
| 20260905221523 | 71 | 51 | 0.0 | 6.0 | 0.00 | 0.15 | 0.01 | 53 | 1018.1 |
| 20260905221008 | 71 | 221 | 2.0 | 5.0 | 0.00 | 0.15 | 0.01 | 52 | 1018.1 |
| 20260905220508 | 70 | 195 | 1.0 | 4.0 | 0.00 | 0.15 | 0.01 | 54 | 1018.1 |
| 20260905220013 | 70 | 101 | 0.0 | 8.0 | 0.00 | 0.15 | 0.01 | 52 | 1018.1 |
| 20260905215506 | 70 | 59 | 2.0 | 8.0 | 0.00 | 0.15 | 0.01 | 52 | 1018.2 |
| 20260905215004 | 70 | 140 | 3.0 | 8.0 | 0.00 | 0.15 | 0.01 | 53 | 1018.1 |
| 20260905214520 | 71 | 137 | 3.0 | 7.0 | 0.00 | 0.15 | 0.01 | 51 | 1018.1 |
| 20260905214006 | 72 | 165 | 4.0 | 7.0 | 0.00 | 0.15 | 0.01 | 50 | 1018.1 |
| 20260905213507 | 73 | 137 | 1.0 | 4.0 | 0.00 | 0.15 | 0.01 | 50 | 1018.1 |
| 20260905213014 | 72 | 51 | 1.0 | 4.0 | 0.00 | 0.15 | 0.01 | 54 | 1018.1 |
| 20260905212507 | 71 | 221 | 1.0 | 4.0 | 0.00 | 0.15 | 0.01 | 54 | 1018.1 |
| 20260905212007 | 71 | 72 | 1.0 | 4.0 | 0.00 | 0.15 | 0.01 | 52 | 1018.2 |
| 20260905211527 | 71 | 72 | 1.0 | 4.0 | 0.00 | 0.15 | 0.01 | 53 | 1018.3 |
| 20260905211008 | 71 | 93 | 1.0 | 5.0 | 0.00 | 0.15 | 0.01 | 56 | 1018.3 |
| 20260905210506 | 70 | 108 | 1.0 | 7.0 | 0.00 | 0.15 | 0.01 | 59 | 1018.3 |
| 20260905210020 | 69 | 243 | 0.0 | 8.0 | 0.00 | 0.15 | 0.01 | 57 | 1018.4 |
| 20260905205508 | 70 | 178 | 2.0 | 8.0 | 0.00 | 0.15 | 0.01 | 58 | 1018.4 |
| 20260905205009 | 71 | 120 | 1.0 | 4.0 | 0.00 | 0.15 | 0.01 | 57 | 1018.4 |
| 20260905204516 | 70 | 51 | 1.0 | 5.0 | 0.00 | 0.15 | 0.01 | 56 | 1018.4 |
| 20260905204005 | 70 | 137 | 2.0 | 7.0 | 0.00 | 0.15 | 0.01 | 57 | 1018.5 |
| 20260905203505 | 70 | 40 | 1.0 | 7.0 | 0.00 | 0.15 | 0.01 | 58 | 1018.6 |
| 20260905203016 | 69 | 18 | 2.0 | 7.0 | 0.00 | 0.15 | 0.01 | 58 | 1018.5 |
| 20260905202506 | 69 | 229 | 2.0 | 6.0 | 0.00 | 0.15 | 0.01 | 60 | 1018.5 |
| 20260905202011 | 69 | 330 | 1.0 | 5.0 | 0.00 | 0.15 | 0.01 | 56 | 1018.6 |
| 20260905201514 | 69 | 265 | 2.0 | 6.0 | 0.00 | 0.15 | 0.01 | 59 | 1018.6 |
| 20260905201005 | 69 | 153 | 2.0 | 6.0 | 0.00 | 0.15 | 0.01 | 62 | 1018.5 |
| 20260905200512 | 68 | 51 | 1.0 | 5.0 | 0.00 | 0.15 | 0.01 | 61 | 1018.5 |
| 20260905200035 | 68 | 74 | 1.0 | 3.0 | 0.00 | 0.15 | 0.01 | 59 | 1018.6 |
| 20260905195506 | 68 | 215 | 1.0 | 3.0 | 0.00 | 0.15 | 0.01 | 66 | 1018.6 |
| 20260905195009 | 68 | 34 | 1.0 | 6.0 | 0.00 | 0.15 | 0.01 | 62 | 1018.6 |
| 20260905194516 | 68 | 48 | 1.0 | 7.0 | 0.00 | 0.15 | 0.01 | 67 | 1018.7 |
| 20260905194006 | 67 | 221 | 0.0 | 7.0 | 0.00 | 0.15 | 0.01 | 69 | 1018.7 |
| 20260905193509 | 66 | 146 | 2.0 | 7.0 | 0.00 | 0.15 | 0.01 | 64 | 1018.8 |